Weather History for KDRM - August, 2014

Change the Weather History Date:

Tuesday, August 12, 2014

  Actual Average (KCIU) Record (KCIU)
Temperature  
Mean Temperature 60 °F -  
Max Temperature 65 °F 74 °F 85 °F (1993)
Min Temperature 55 °F 47 °F 32 °F (1979)
Degree Days  
Heating Degree Days 5    
Growing Degree Days 10 (Base 50)    
Moisture  
Dew Point 60 °F    
Average Humidity 98    
Maximum Humidity 100    
Minimum Humidity 91    
Precipitation  
Precipitation 0.00 in - - ()
Sea Level Pressure  
Sea Level Pressure 29.68 in    
Wind  
Wind Speed 6 mph (NNW)    
Max Wind Speed 16 mph    
Max Gust Speed 25 mph    
Visibility 6 miles    
Events Rain    
Averages and records for this station are not official NWS values.
T = Trace of Precipitation, MM = Missing Value Source: NWS Daily Summary

Daily Weather History Graph

Daily Weather History Graph

Search for Another Location

Airport or City:

Trip Planner

Search our weather history database for the weather conditions in past years. The results will help you decide how hot, cold, wet, or windy it might be!

Date:

Astronomy

Aug. 12, 2014 Rise Set
Actual Time 6:30 AM EDT 8:48 PM EDT
Civil Twilight 5:57 AM EDT 9:21 PM EDT
Nautical Twilight 5:16 AM EDT 10:02 PM EDT
Astronomical Twilight 4:30 AM EDT 10:48 PM EDT
Moon 9:43 PM EDT (8/12) 8:57 AM EDT (8/12)
Length of Visible Light 15h 23m
Length of Day
14h 17m
Waning Gibbous, 95% of the Moon is Illuminated
Aug 12
Waning Gibbous
Aug 17
Last Quarter
Aug 25
New
Sep 2
First Quarter
Sep 8
Full

Hourly Weather History & Observations

Time (EDT) Temp. Dew Point Humidity Pressure Visibility Wind Dir Wind Speed Gust Speed Precip Events Conditions
12:15 AM 65.3 °F 64.8 °F 98% 29.79 in 2.5 mi North 3.5 mph - N/A Rain Heavy Rain
12:35 AM 65.3 °F 65.3 °F 100% 29.78 in 3.0 mi NNW 3.5 mph - N/A Rain Rain
12:55 AM 65.5 °F 65.3 °F 99% 29.77 in 3.0 mi North 8.1 mph - N/A Rain Heavy Rain
1:35 AM 65.3 °F 65.3 °F 100% 29.75 in 3.0 mi North 5.8 mph - N/A Rain Light Rain
1:55 AM 65.1 °F 65.1 °F 100% 29.74 in 5.0 mi North 5.8 mph - N/A Rain Rain
2:14 AM 65.5 °F 65.5 °F 100% 29.73 in 5.0 mi Calm Calm - N/A   Drizzle
2:35 AM 65.5 °F 65.5 °F 100% 29.73 in 4.0 mi Calm Calm - N/A Rain Light Rain
2:55 AM 65.8 °F 65.8 °F 100% 29.72 in 4.0 mi Calm Calm - N/A Rain Light Rain
3:15 AM 65.8 °F 65.8 °F 100% 29.72 in 3.0 mi Calm Calm - N/A Rain Rain
3:35 AM 65.8 °F 65.8 °F 100% 29.70 in 3.0 mi Calm Calm - N/A Rain Rain
3:55 AM 65.5 °F 65.5 °F 100% 29.70 in 4.0 mi Calm Calm - N/A Rain Light Rain
4:15 AM 65.5 °F 65.5 °F 100% 29.69 in 4.0 mi NNE 3.5 mph - N/A Rain Light Rain
4:35 AM 65.3 °F 65.3 °F 100% 29.68 in 5.0 mi NNE 3.5 mph - N/A Rain Rain
4:55 AM 64.6 °F 64.2 °F 99% 29.68 in 5.0 mi NE 5.8 mph - N/A Rain Rain
5:35 AM 63.7 °F 63.5 °F 99% 29.66 in 5.0 mi North 6.9 mph - N/A Rain Rain
6:15 AM 63.7 °F 63.5 °F 99% 29.65 in 5.0 mi North 8.1 mph - N/A Rain Rain
6:35 AM 64.0 °F 64.0 °F 100% 29.65 in 5.0 mi North 8.1 mph - N/A Rain Rain
6:55 AM 64.4 °F 64.4 °F 100% 29.64 in 4.0 mi North 10.4 mph - N/A Rain Rain
7:15 AM 63.0 °F 62.4 °F 98% 29.65 in 3.0 mi NE 5.8 mph - N/A Rain Rain
7:35 AM 61.9 °F 61.3 °F 98% 29.64 in 3.0 mi NE 5.8 mph - N/A Rain Heavy Rain
7:55 AM 62.8 °F 62.4 °F 99% 29.64 in 7.0 mi North 8.1 mph - N/A Rain Light Rain
8:15 AM 63.1 °F 61.7 °F 95% 29.64 in 7.0 mi NNE 5.8 mph - N/A Rain Light Rain
8:35 AM 63.0 °F 61.2 °F 94% 29.63 in 7.0 mi NNE 9.2 mph - N/A Rain Light Rain
8:55 AM 62.8 °F 61.5 °F 96% 29.63 in 7.0 mi NNE 4.6 mph - N/A Rain Rain
9:15 AM 62.6 °F 61.0 °F 94% 29.62 in 7.0 mi North 3.5 mph - N/A Rain Rain
9:35 AM 63.5 °F 63.1 °F 99% 29.62 in 5.0 mi North 8.1 mph - N/A Rain Rain
9:55 AM 63.5 °F 62.1 °F 95% 29.62 in 7.0 mi NE 8.1 mph 19.6 mph N/A Rain Light Rain
10:15 AM 62.6 °F 61.0 °F 94% 29.62 in 5.0 mi North 4.6 mph - N/A Rain Light Rain
10:35 AM 63.1 °F 62.1 °F 96% 29.62 in 5.0 mi NNW 5.8 mph - N/A Rain Rain
10:55 AM 62.6 °F 61.9 °F 97% 29.61 in 5.0 mi NNW 6.9 mph - N/A Rain Light Rain
11:15 AM 62.6 °F 62.2 °F 99% 29.62 in 7.0 mi NNW 9.2 mph 19.6 mph N/A Rain Light Rain
11:35 AM 62.6 °F 61.5 °F 96% 29.62 in 10.0 mi NNW 11.5 mph 19.6 mph N/A Rain Light Rain
11:55 AM 62.6 °F 61.3 °F 96% 29.62 in 7.0 mi NW 11.5 mph 17.3 mph N/A   Drizzle
1:35 PM 60.8 °F 58.3 °F 91% 29.63 in 10.0 mi NW 8.1 mph 17.3 mph N/A Rain Light Rain
1:55 PM 60.4 °F 58.6 °F 94% 29.63 in 7.0 mi NW 10.4 mph 17.3 mph N/A Rain Light Rain
2:15 PM 60.3 °F 59.0 °F 96% 29.63 in 5.0 mi NW 9.2 mph - N/A Rain Rain
2:35 PM 60.4 °F 59.4 °F 96% 29.63 in 7.0 mi NW 6.9 mph - N/A Rain Light Rain
2:55 PM 60.8 °F 59.7 °F 96% 29.64 in 10.0 mi NW 6.9 mph - N/A Rain Rain
3:15 PM 60.1 °F 58.8 °F 96% 29.65 in 7.0 mi NW 9.2 mph 20.7 mph N/A Rain Rain
3:35 PM 59.9 °F 59.0 °F 97% 29.65 in 5.0 mi NW 9.2 mph 19.6 mph N/A Rain Rain
3:55 PM 59.4 °F 58.5 °F 97% 29.65 in 7.0 mi WNW 8.1 mph 19.6 mph N/A Rain Light Rain
4:35 PM 58.5 °F 57.6 °F 97% 29.66 in 5.0 mi WNW 13.8 mph 24.2 mph N/A Rain Rain
4:55 PM 58.1 °F 57.4 °F 97% 29.67 in 5.0 mi WNW 8.1 mph 21.9 mph N/A Rain Rain
5:15 PM 58.1 °F 57.2 °F 97% 29.67 in 5.0 mi WNW 9.2 mph 20.7 mph N/A Rain Rain
5:35 PM 57.6 °F 57.2 °F 99% 29.67 in 5.0 mi WNW 8.1 mph 19.6 mph N/A Rain Light Rain
5:55 PM 56.7 °F 55.9 °F 97% 29.68 in 5.0 mi WNW 10.4 mph 20.7 mph N/A Rain Rain
6:15 PM 55.9 °F 55.2 °F 97% 29.69 in 5.0 mi WNW 11.5 mph 23.0 mph N/A Rain Light Rain
6:35 PM 55.8 °F 55.0 °F 97% 29.69 in 5.0 mi WNW 12.7 mph 19.6 mph N/A Rain Rain
6:55 PM 55.6 °F 54.9 °F 97% 29.69 in 7.0 mi WNW 16.1 mph 24.2 mph N/A Rain Light Rain
7:15 PM 55.6 °F 54.7 °F 97% 29.69 in 7.0 mi WNW 11.5 mph 24.2 mph N/A Rain Light Rain
7:55 PM 55.8 °F 55.4 °F 99% 29.69 in 5.0 mi WNW 15.0 mph 20.7 mph N/A Rain Rain
8:15 PM 55.9 °F 55.4 °F 98% 29.70 in 10.0 mi WNW 9.2 mph 18.4 mph N/A Rain Light Rain
8:35 PM 56.3 °F 55.6 °F 97% 29.70 in 10.0 mi WNW 9.2 mph 19.6 mph N/A Rain Rain
8:55 PM 55.9 °F 55.4 °F 98% 29.70 in 7.0 mi WNW 13.8 mph 23.0 mph N/A Rain Rain
9:15 PM 55.8 °F 55.0 °F 97% 29.71 in 7.0 mi WNW 13.8 mph 21.9 mph N/A Rain Light Rain
9:35 PM 55.8 °F 54.9 °F 97% 29.72 in 10.0 mi WNW 8.1 mph 25.3 mph N/A Rain Light Rain
9:55 PM 55.8 °F 54.9 °F 97% 29.72 in 7.0 mi WNW 10.4 mph 21.9 mph N/A Rain Light Rain
10:15 PM 56.1 °F 55.6 °F 98% 29.72 in 7.0 mi WNW 8.1 mph 19.6 mph N/A Rain Light Rain
10:55 PM 55.8 °F 55.4 °F 99% 29.72 in 10.0 mi WNW 9.2 mph 24.2 mph N/A Rain Rain
11:15 PM 55.9 °F 55.4 °F 98% 29.72 in 10.0 mi WNW 10.4 mph 20.7 mph N/A Rain Light Rain
11:35 PM 55.8 °F 55.0 °F 97% 29.73 in 10.0 mi WNW 9.2 mph 20.7 mph N/A Rain Rain
11:55 PM 55.4 °F 54.5 °F 97% 29.73 in 10.0 mi WNW 16.1 mph 21.9 mph N/A   Light Drizzle